星链-36178(STARLINK-36178)

导读 | 豆包AI

STARLINK-36178是美国于2025年12月10日发射的星链系列低轨通信卫星,归属SpaceX星链星座项目。星链系统旨在为全球用户提供覆盖广、低延迟的高速互联网服务,该卫星入轨后将补充星座网络容量,进一步完善全球卫星互联网通信布局,提升服务覆盖与承载能力。

Basic Information
目录编号:
67025
目录名称:
STARLINK-36178
国际标识:
2025-293Y
轨道中心:
EARTH
卫星名称:
星链-36178
卫星全名:
星链-36178(STARLINK-36178)
卫星状态:
在轨 (已飞行140 天)
发射日期:
2025-12-10 UTC
国别 :
美国 (US)
星等 :
--
Orbit Information
数据来源 国际轨道数据 AOE轨道数据
星历时间 2026-04-29T04:33:55+0800
6小时前
查看轨道信息
2026-04-22T19:00:00+0800
6天前
查看轨道信息
半长轴 6950.211km 6950.2km
偏心率 0.0002423 0.0002497
轨道倾角 70.002° 70.002°
近地点辐角 267.961° 273.476°
升交点赤经 327.914° 344.046°
平近点角 92.127° 142.712°
近地点 570.389km 570.327km
远地点 573.759km 573.799km
周期 96.107分钟 96.107分钟
每日圈数 14.983244 14.983278
Detailed Information
固有亮度:
5
最大亮度:
2.5
卫星平台:
Starlink V1.0
覆盖范围:
全球
运营商:
太空探索技术公司
运营商所在国:
美国
制造商(研发单位):
太空探索技术公司
制造商所在国:
美国
使用方式:
暂无
Satellite Introduction
Starlink 计划是 SpaceX 推出的全球卫星互联网项目,通过发射低轨道卫星,为全球尤其是偏远地区提供高速、低延迟的互联网服务。自 2019 年起,Starlink 已部署数千颗卫星,旨在缩小全球数字鸿沟,推动互联网普及。该项目还为军事、航空等行业提供通信支持,带来广泛经济效益。
2D Orbit Map
3D Orbit Map
Orbit Altitude Analysis Chart
Orbit Inclination Analysis Chart
Orbit Comprehensive Analysis Chart
View Comprehensive Chart